Flag for U.S.A. Weather past 2 weeks in Youngstown, Ohio, U.S.A.

Now
47 °F

Overcast.


Feels Like: 42 °F
Forecast: 37 / 65 °F
Wind: 9 mph from Southwest

Location: Youngstown-Warren Regional Airport

Current Time: May 22, 2015 at 6:05:27 AM

Latest Report: May 22, 2015 at 4:51 AM


Visibility: 10 mi

Pressure: 30.03 "Hg

Humidity: 71%

Dew point: 38 °F

Location of YoungstownLocation

Historic Weather in Youngstown — Graph

°F

Youngstown temperature yesterday

Maximum temperature yesterday: 58 °F (at 2:51 PM)
Minimum temperature yesterday: 44 °F (at 5:51 AM)
Average temperature yesterday: 50 °F

Past Weeks' High & Low Weather Summary

 TemperatureHumidityPressure
High88 °F (May 8, 3:51 PM)100% (May 7, 5:51 AM)30.49 "Hg (May 7, 5:51 AM)
Low34 °F (May 14, 5:51 AM)29% (May 8, 4:51 PM)29.84 "Hg (May 11, 6:51 PM)
Average63 °F70%30.10 "Hg
* Reported May 7 4:51 AM — May 22 4:51 AM, Youngstown, Weather by CustomWeather, © 2015

Note: Actual official high and low records may vary slightly from our data, if they occured in-between our weather recording intervals... More about our weather records

Advertising

Youngstown weather history for previous 24 hours

 ConditionsComfort  
Time TempWeatherWind HumidityBarometerVisibility
4:51 AM
Fri, May 22
47 °FOvercast.9 mph71%30.03 "Hg10 mi
3:51 AM46 °FPassing clouds.8 mph73%30.02 "Hg10 mi
2:51 AM44 °FClear.8 mph76%30.02 "Hg10 mi
1:51 AM45 °FClear.9 mph71%30.02 "Hg10 mi
12:51 AM45 °FClear.8 mph71%30.02 "Hg10 mi
11:51 PM
Thu, May 21
45 °FClear.8 mph76%30.02 "Hg10 mi
10:51 PM44 °FClear.6 mph76%30.02 "Hg10 mi
9:51 PM47 °FPassing clouds.3 mph66%30.01 "Hg10 mi
8:51 PM50 °FPartly sunny.5 mph59%29.99 "Hg10 mi
7:51 PM53 °FPartly sunny.5 mph51%29.99 "Hg10 mi
6:51 PM54 °FMore clouds than sun.14 mph51%29.99 "Hg10 mi
5:51 PM54 °FMostly cloudy.10 mph57%29.98 "Hg10 mi
4:51 PM55 °FLight rain. Cloudy.13 mph53%29.96 "Hg10 mi
3:51 PM56 °FOvercast.10 mph51%29.95 "Hg10 mi
2:51 PM58 °FMostly cloudy.9 mph43%29.95 "Hg10 mi
1:51 PM57 °FMostly cloudy.No wind46%29.97 "Hg10 mi
12:51 PM57 °FPartly sunny.3 mph42%29.98 "Hg10 mi
11:51 AM54 °FMostly cloudy.3 mph55%30.00 "Hg10 mi
10:51 AM51 °FOvercast.No wind59%30.01 "Hg10 mi
9:51 AM50 °FOvercast.5 mph63%30.01 "Hg10 mi
8:51 AM48 °FOvercast.9 mph71%30.00 "Hg10 mi
7:51 AM46 °FOvercast.7 mph77%30.01 "Hg10 mi
6:51 AM45 °FOvercast.6 mph80%30.02 "Hg10 mi
Weather by CustomWeather, © 2015

See weather overviewHow to use our weather pages